SCP
0 0 0 0 0 0 0 0 0 0 0 0 0 0 0 0 0 0 0 0 0 0 0 0 0 0 0 0 0 0 0 0 0 0 0 0 0 0
0 0 0 0 0 0 0 0 0 0 0 0 0 0 0 0 0 0 0 0 0 0 0 0 0 0 0 0 0 0 0 0 0 0 0 0 0 0
0 0 0 0 0 0 0 0 0 0 0 0 0 0 0 0 0 0 0 0 0 0 0 0 0 0 0 0 0 0 0 0 0 0 0 0 0 0
0 0 0 0 0 0 0 0 0 0 0 0 0 0 0 0 0 0 0 0 0 0 0 0 0 0 0 0 0 0 0 0 0 0 0 0 0 0
-0 0 0 0 0 0 0 0 0 0 0 0 0 0 0 0 0 0 0 0 0 0 0 0 0 0 0 0 0 0 0 0 0 0 0 0 0 0
0 0 0 0 0 0 0 0 0 0 0 0 0 0 0 0 0 0 0 0 0 0 0 0 0 0 0 0 0 0 0 0 0 0 0 0 0 0
0 0 0 0 0 0 0 0 0 0 0 0 0 0 0 0 0 0 0 0 0 0 0 0 0 0 0 0 0 0 0 0 0 0 0 0 0 0
0 0 0 0 0 0 0 0 0 0 0 0 0 0 0 0 0 0 0 0 0 0 0 0 0 0 0 0 0 0 0 0 0 0 0 0 0 0
0 0 0 0 0 0 0 0 0 0 0 0 0 0 0 0 0 0 0 0 0 0 0 0 0 0 0 0 0 0 0 0 0 0 0 0 0 0
0 0 0 0 0 0 0 0 0 0 0 0 0 0 0 0 0 0 0 0 0 0 0 0 0 0 0 0 0 0 0 0 0 0 0 0 0 0
0 0 0 0 0 0 0 0 0 0 0 0 0 0 0 0 0 0 0 0 0 0 0 0 0 0 0 0 0 0 0 0 0 0 0 0 0 0
0 0 0 0 0 0 0 0 0 0 0 0 0 0 0 0 0 0 0 0 0 0 0 0 0 0 0 0 0 0 0 0 0 0 0 0 0 0
0 0 0 0 0 0 0 0 0 0 0 0 0 0 0 0 0 0 0 0 0 0 0 0 0 0 0 0 0 0 0 0 0 0 0 0 0 0
0 0 0 0 0 0 0 0 0 0 0 0 0 0 0 0 0 0 0 0 0 0 0 0 0 0 0 0 0 0 0 0 0 0 0 0 0 0
0 0 0 0 0 0 0 0 0 0 0 0 0 0 0 0 0 0 0 0 0 0 0 0 0 0 0 0 0 0 0 0 0 0 0 0 0 0
0 0 0 0 0 0 0 0 0 0 0 0 0 0 0 0 0 0 0 0 0 0 0 0 0 0 0 0 0 0 0 0 0 0 0 0 0 0
0 0 0 0 0 0 0 0 0 0 0 0 0 0 0 0 0 0 0 0 0 0 0 0 0 0 0 0 0 0 0 0 0 0 0 0 0 0
0 0 0 0 0 0 0 0 0 0 0 0 0 0 0 0 0 0 0 0 0 0 0 0 0 0 0 0 0 0 0 0 0 0 0 0 0 0
0 0 0 0 0 0 0 0 0 0 0 0 0 0 0 0 0 0 0 0 0 0 0 0 0 0 0 0 0 0 0 0 0 0 0 0 0 0
0 0 0 0 0 0 0 0 0 0 0 0 0 0 0 0 0 0 0 0 0 0 0 0 0 0 0 0 0 0 0 0 0 0 0 0 0 0
0 0 0 0 0 0 0 0 0 0 0 0 0 0 0 0 0 0 0 0 0 0 0 0 0 0 0 0 0 0 0 0 0 0 0 0 0 0
0 0 0 0 0 0 0 0 0 0 0 0 0 0 0 0 0 0 0 0 0 0 0 0 0 0 0 0 0 0 0 0 0 0 0 0 0 0
0 0 0 0 0 0 0 0 0 0 0 0 0 0 0 0 0 0 0 0 0 0 0 0 0 0 0 0 0 0 0 0 0 0 0 0 0 0
Wind_Speed
3 3 3 2 2 3 2 2 2 2 2 2 3 3 2 2 3 3 2 2 4 4 3 4 4 5 5 4 4 3 3 3 3 3 4 5 5 6
2 3 3 2 2 2 2 2 2 1 2 2 2 2 3 3 4 4 3 4 3 4 3 4 4 5 5 4 4 4 4 4 4 4 5 5 5 6
3 3 3 3 3 3 3 3 3 2 2 3 2 3 4 3 3 3 3 2 2 4 4 4 4 4 5 5 5 5 5 5 5 5 6 6 6 7
3 3 3 3 3 2 2 3 2 2 2 3 3 3 3 3 3 4 4 4 3 4 4 4 4 4 4 5 5 5 5 5 6 6 7 7 7 8
2 3 3 4 3 3 3 3 3 3 2 2 3 3 3 3 3 4 5 3 4 5 5 5 5 6 6 6 6 6 6 6 6 6 7 7 7 8
2 2 2 3 3 3 3 4 4 4 3 2 2 3 3 3 2 3 4 3 4 5 5 5 5 6 7 7 7 7 6 6 6 6 6 7 7 7
2 2 2 2 2 2 3 3 3 3 3 3 3 3 3 3 3 3 3 4 4 3 3 4 4 3 4 6 8 8 8 7 7 6 6 7 7 7
2 2 1 1 2 3 5 5 4 3 3 3 3 4 4 4 3 3 3 4 4 3 3 5 4 4 4 4 6 8 8 8 8 7 7 7 7 8
2 2 2 3 3 2 4 5 5 7 6 4 4 4 4 4 4 4 4 4 5 4 3 5 4 5 5 5 7 8 8 8 8 8 8 8 8 9
2 2 2 2 3 4 4 4 4 4 5 4 4 5 5 4 4 5 6 6 6 5 3 6 5 5 6 4 7 9 9 9 9 10 10 9 9 9
2 1 2 1 4 5 4 4 5 5 6 8 9 9 11 12 9 4 4 4 6 5 3 4 5 5 5 5 6 8 9 9 10 10 11 11 10 9
2 1 1 2 4 5 3 4 5 5 6 7 7 9 8 9 11 6 4 4 5 5 3 2 4 4 5 4 3 3 5 8 10 11 12 12 11 6
2 1 1 3 5 6 6 4 7 8 6 6 6 5 5 4 4 4 4 4 4 5 4 3 4 4 5 6 5 4 4 4 4 6 9 12 12 9
3 2 2 5 7 8 7 8 12 10 5 5 5 4 4 4 4 4 5 5 5 7 6 5 4 5 5 7 6 4 4 4 4 5 5 7 10 11
3 5 6 8 8 7 9 11 9 5 4 4 5 4 4 4 4 4 5 6 7 8 7 6 6 5 5 7 7 6 6 5 4 4 4 5 5 5
4 5 8 9 7 8 8 7 5 4 4 4 4 4 4 4 4 4 5 5 5 7 7 7 7 7 6 7 7 7 6 5 4 4 4 5 5 5
3 3 3 4 4 4 4 4 4 3 4 4 4 4 4 4 5 4 4 5 5 6 7 5 6 6 7 6 6 7 6 6 5 5 5 5 5 5
3 3 4 4 5 4 4 4 4 3 4 4 4 4 5 5 6 5 5 5 6 7 6 5 5 5 5 6 7 7 6 5 5 5 4 5 6 5
3 4 4 5 5 4 4 4 4 4 3 4 4 5 5 5 5 5 5 6 6 7 6 5 4 5 7 8 6 6 6 5 4 5 4 5 6 6
4 5 5 5 4 4 4 4 4 4 4 4 4 5 5 5 6 6 6 7 7 7 7 5 5 5 7 8 7 6 8 6 5 6 5 5 6 7
5 5 5 5 4 4 4 4 4 4 5 4 4 5 5 5 6 6 6 9 8 7 8 6 6 8 6 5 6 7 6 8 9 7 6 5 6 5
5 5 4 4 4 4 4 4 4 4 5 4 5 5 5 5 6 7 7 7 6 7 8 7 6 5 5 6 8 9 7 6 6 9 10 9 6 6
5 5 4 4 4 4 4 4 5 5 4 4 5 5 5 6 6 6 7 7 7 8 8 7 6 5 6 6 7 7 8 7 5 5 6 8 11 12
Wind_Direction
31 34 32 22 25 10 11 28 39 1 341 348 4 357 8 21 2 3 13 4 355 348 340 332 325 325 324 319 314 306 296 294 288 271 253 235 227 224
39 40 27 15 17 12 3 4 19 19 336 329 338 342 359 355 355 355 346 330 318 315 310 307 311 315 314 308 305 296 290 286 277 268 260 247 234 234
26 46 35 23 17 8 1 6 7 13 347 321 333 346 357 351 342 332 321 311 299 302 300 292 293 299 307 304 295 287 280 277 272 265 261 256 245 240
19 26 17 23 19 6 2 1 351 353 9 336 329 337 337 325 334 331 324 322 318 300 291 284 286 286 289 295 292 283 275 270 266 261 259 257 254 246
19 23 17 22 11 359 1 358 343 345 353 337 322 325 321 326 337 328 326 326 321 317 300 286 283 278 275 275 278 277 271 267 264 259 258 258 256 253
17 24 28 34 20 360 359 352 350 347 338 332 317 315 311 314 335 327 325 324 313 310 310 300 291 286 274 268 267 269 266 261 260 260 255 250 248 250
353 356 43 38 19 360 350 339 342 334 330 330 321 322 318 329 317 307 312 308 305 307 313 305 300 289 279 267 259 256 256 257 256 254 253 248 243 243
338 347 9 357 342 330 322 317 318 321 315 315 310 310 306 310 312 311 309 315 306 300 314 300 296 289 275 260 248 243 246 249 252 252 249 247 243 240
330 327 325 352 355 326 310 300 293 291 290 285 290 293 298 310 316 314 304 293 283 281 298 291 288 285 280 279 256 246 246 248 248 249 248 246 245 241
301 311 317 339 349 345 330 324 306 290 279 285 276 284 293 294 285 285 284 289 285 282 276 281 284 279 285 279 261 246 244 248 246 245 246 245 244 242
288 329 355 358 344 345 334 317 311 307 297 293 294 294 295 295 290 292 292 292 290 286 272 272 284 290 286 279 267 252 248 250 250 251 248 244 242 241
289 278 325 321 326 333 320 310 305 303 313 310 301 295 289 284 281 265 259 271 279 283 282 290 295 312 300 283 275 268 258 257 254 253 250 243 240 236
290 285 277 304 307 305 302 285 286 297 298 294 292 291 289 285 278 270 268 261 267 270 278 289 287 289 278 289 292 273 256 258 255 256 250 245 238 228
285 282 274 293 294 294 291 285 291 299 291 288 287 288 288 289 287 285 284 281 271 269 271 267 265 265 274 283 284 279 271 263 256 256 254 252 242 237
274 287 288 288 292 289 281 283 289 283 276 278 280 277 274 277 286 289 289 287 288 284 278 267 261 260 254 264 273 277 281 270 252 253 255 253 244 233
273 284 288 286 280 277 279 275 260 254 262 264 270 275 282 286 285 282 283 286 289 289 283 273 262 257 262 262 262 268 268 263 259 259 259 260 254 239
273 275 275 276 273 271 270 267 261 263 266 265 270 279 284 287 285 283 281 284 283 285 289 284 271 264 258 259 265 262 264 266 259 256 261 264 260 250
265 262 264 263 265 268 271 271 268 265 265 269 273 275 278 281 284 283 280 279 280 280 278 279 285 293 291 275 249 259 265 264 263 257 256 263 267 263
250 254 259 261 262 265 265 265 268 266 268 272 275 274 274 276 279 282 281 279 278 279 276 274 274 273 279 282 271 245 258 267 266 262 253 257 264 264
238 248 254 258 261 263 266 269 272 277 276 275 276 277 278 278 279 279 278 278 280 283 280 269 260 257 261 271 278 273 252 250 255 261 261 266 269 266
242 247 251 254 257 261 266 267 269 273 276 277 276 277 276 277 278 277 278 281 281 281 278 271 261 261 264 271 275 273 263 248 245 250 256 261 269 264
245 249 251 252 254 256 260 265 268 269 271 272 276 277 276 275 277 280 280 282 279 277 280 279 275 272 262 262 269 276 278 271 263 263 260 253 247 251
248 251 250 251 253 255 256 262 269 271 270 271 273 274 277 279 278 277 277 277 278 280 282 283 279 271 264 260 267 272 275 275 273 276 276 269 256 255